Regional Weather Roundup
Issued by NWS Newport/Morehead, NC

Current Version | Previous Version | Graphics & Text | Print | Product List | Glossary On
Versions: 1 2 3 4 5 6 7 8 9 10 11 12 13 14 15 16 17 18 19 20 21 22 23 24 25 26 27 28 29 30 31 32 33 34 35 36 37 38 39 40 41 42 43 44 45 46 47 48 49 50
000 ASUS42 KMHX 201125 RWRMHX WEATHER ROUNDUP FOR EASTERN NORTH CAROLINA NATIONAL WEATHER SERVICE NEWPORT/MOREHEAD CITY NC 600 AM EST MON FEB 20 2017 NOTE: "FAIR" INDICATES FEW OR NO CLOUDS BELOW 12,000 FEET WITH NO SIGNIFICANT WEATHER AND/OR OBSTRUCTIONS TO VISIBILITY NCZ015>017-031-032-045>047-102-103-201200- NORTH COAST CITY SKY/WX TMP DP RH WIND PRES REMARKS EDENTON CLEAR 47 42 82 N3 30.16R ELIZABETH CITY CLEAR 45 40 82 NW5 30.13R KITTY HAWK NOT AVBL MANTEO CLEAR 52 44 74 N7 30.13R $$ NCZ045>047-081-094-103-104-201200- CENTRAL COAST CITY SKY/WX TMP DP RH WIND PRES REMARKS FRISCO CLEAR 52 47 83 N6 30.11R $$ NCZ095-097-098-100-101-201200- SOUTHERN COAST CITY SKY/WX TMP DP RH WIND PRES REMARKS BEAUFORT CLEAR 53 46 77 N10 30.12R CEDAR ISLAND NOT AVBL JACKSONVILLE CLEAR 51 44 77 CALM 30.13R PINEY ISLAND SUNNY N/A N/A N/A N9 30.12R WILMINGTON CLEAR 47 44 90 N5 30.14R $$ NCZ011>013-027>030-043-044-078>080-089-090>093-098-201200- COASTAL PLAIN CITY SKY/WX TMP DP RH WIND PRES REMARKS AHOSKIE N/A 39 37 95 CALM 30.16R CLINTON CLEAR 45 44 95 CALM 30.15S ELIZABETHTOWN CLEAR 50 44 78 N3 30.15R GOLDSBORO CLEAR 46 45 97 CALM 30.14R GREENVILLE CLEAR 41 37 87 CALM 30.17R HAVELOCK CLEAR 53 44 71 N8 30.14R KENANSVILLE NOT AVBL KINSTON CLEAR 44 40 87 CALM 30.16R NEW BERN CLEAR 50 44 80 N6 30.15R RICHLANDS CLEAR 42 40 92 CALM 30.14R ROCKY MOUNT CLEAR 44 41 89 CALM 30.16R WASHINGTON CLEAR 44 42 91 CALM 30.16R WHITEVILLE CLEAR 49 44 84 CALM 30.14R $$ AMZ130-135-150-152-154-156-158-170-250-252-270-ANZ085-086-088-633-658-670-201200- MARINE OBSERVATIONS STATION/POSITION TIME TEMP WIND PRES WAVE SWELL AIR SEA DIR/SP/G HT/PER HT/PER (UTC) (F) (DEG/KT/KT) (MB) (FT/S) (FT/S) CHESAPEAKE LIGHT NOT AVBL 64 E VA BEACH 1050 51 51 330/ 14/ 16 1018.7 1/ 7 2/ 7 DUCK 1100 54 47 340/ 13/ 14 1019.4 2 E DUCK 1100 49 N/A 1/ 7 OREGON INLET 1100 50 52 320/ 3/ 4 1020.0 13E OREGON INLT NOT AVBL HATTERAS CG 1100 54 57 10/ 6/ 8 1019.3 DIAMOND BUOY 1050 62 65 350/ 12/ 12 1019.3 1/ 6 2/ 6 CAPE LOOKOUT 1100 54 350/ 13/ 15 1019.3 BEAUFORT LAB 1100 53 53 350/ 10/ 12 1018.9 30 SE NEW RVR IN 1108 59 360/ 16/ 19 1019.8 30 SE NEW RVR IN 1113 63 N/A 2/ 3 27 SE WRIGHTSVLE 1108 58 61 350/ 12/ 16 1019.3 5 SE WRIGHTSVLE 1108 56 56 360/ 10/ 14 1020.0 225 S CAPE HAT 1050 71 71 10/ 17/ 21 1016.8 6/ 7 2/11 41 SE CHARLESTON 1050 64 69 340/ 10/ 12 1019.3 1/ 7 $$

USA.gov is the U.S. government's official web portal to all federal, state and local government web resources and services.